Jackson, KY

2:52 PM EDT on July 20, 2017 (GMT -0400)
Carroll

Weather History for KJKL - September, 2014

Change the Weather History Date:

Tuesday, September 30, 2014

  Actual Average Record
Temperature  
Mean Temperature 69 °F 63 °F  
Max Temperature 80 °F 73 °F 85 °F (1986)
Min Temperature 57 °F 53 °F 36 °F (2003)
Degree Days  
Heating Degree Days 0 4  
Month to date heating degree days 33 49  
Since 1 July heating degree days 36 52  
Cooling Degree Days 4 2  
Month to date cooling degree days 145 143  
Year to date cooling degree days 1146 1121  
Growing Degree Days 18 (Base 50)    
Moisture  
Dew Point 57 °F    
Average Humidity 68    
Maximum Humidity 93    
Minimum Humidity 43    
Precipitation  
Precipitation 0.00 in 0.12 in 0.60 in (1989)
Month to date precipitation 2.35 3.46  
Year to date precipitation 40.65 37.01  
Snow  
Snow 0.00 in 0.00 in - ()
Month to date snowfall 0.0 0.0  
Since 1 July snowfall 0.0 0.0  
Since 1 September snowfall 0.0 0.0  
Snow Depth 0.00 in    
Sea Level Pressure  
Sea Level Pressure 29.94 in    
Wind  
Wind Speed 1 mph (WNW)    
Max Wind Speed 7 mph    
Max Gust Speed 10 mph    
Visibility 5 miles    
Events      
T = Trace of Precipitation, MM = Missing Value Source: NWS Daily Summary

Daily Weather History Graph

Daily Weather History Graph

Search for Another Location

Airport or City:

Trip Planner

Search our weather history database for the weather conditions in past years. The results will help you decide how hot, cold, wet, or windy it might be!

Date:

Astronomy

Sep. 30, 2014 Rise Set
Actual Time 7:27 AM EDT 7:17 PM EDT
Civil Twilight 7:01 AM EDT 7:43 PM EDT
Nautical Twilight 6:31 AM EDT 8:14 PM EDT
Astronomical Twilight 6:00 AM EDT 8:44 PM EDT
Moon 1:29 PM EDT (9/30) 11:52 PM EDT (9/30)
Length of Visible Light 12h 42m
Length of Day
11h 49m
Waxing Crescent, 38% of the Moon is Illuminated
Sep 30
Waxing Crescent
Oct 1
First Quarter
Oct 8
Full
Oct 15
Last Quarter
Oct 23
New

Hourly Weather History & Observations

Time (EDT) Temp. Dew Point Humidity Pressure Visibility Wind Dir Wind Speed Gust Speed Precip Events Conditions
12:53 AM 64.0 °F 61.0 °F 90% 29.93 in 10.0 mi Calm Calm - N/A   Clear
1:53 AM 63.0 °F 60.1 °F 90% 29.93 in 9.0 mi Calm Calm - N/A   Clear
2:53 AM 62.1 °F 59.0 °F 90% 29.93 in 6.0 mi Calm Calm - N/A   Clear
3:38 AM 61.0 °F 59.0 °F 93% 29.95 in 1.8 mi Calm Calm - N/A   Clear
3:47 AM 62.6 °F 60.8 °F 94% 29.95 in 3.0 mi Calm Calm - N/A   Clear
3:53 AM 62.1 °F 60.1 °F 93% 29.91 in 5.0 mi Calm Calm - N/A   Clear
4:33 AM 60.1 °F 57.9 °F 93% 29.95 in 1.8 mi Calm Calm - N/A   Clear
4:40 AM 61.0 °F 57.9 °F 90% 29.95 in 1.5 mi Calm Calm - N/A   Clear
4:44 AM 60.1 °F 57.9 °F 93% 29.95 in 2.0 mi Calm Calm - N/A   Clear
4:53 AM 60.1 °F 57.9 °F 93% 29.92 in 2.0 mi Calm Calm - N/A   Clear
5:09 AM 60.1 °F 57.9 °F 93% 29.95 in 4.0 mi Calm Calm - N/A   Clear
5:25 AM 59.0 °F 57.0 °F 93% 29.95 in 2.0 mi Calm Calm - N/A   Clear
5:28 AM 59.0 °F 57.0 °F 93% 29.95 in 1.8 mi Calm Calm - N/A   Partly Cloudy
5:36 AM 59.0 °F 57.0 °F 93% 29.95 in 1.2 mi Calm Calm - N/A   Partly Cloudy
5:41 AM 59.0 °F 57.0 °F 93% 29.95 in 2.0 mi Calm Calm - N/A   Partly Cloudy
5:53 AM 60.1 °F 57.0 °F 90% 29.92 in 2.5 mi Calm Calm - N/A   Partly Cloudy
6:01 AM 60.1 °F 57.0 °F 90% 29.96 in 3.0 mi Calm Calm - N/A   Clear
6:20 AM 59.0 °F 57.0 °F 93% 29.96 in 2.5 mi Calm Calm - N/A   Clear
6:29 AM 59.0 °F 57.0 °F 93% 29.96 in 4.0 mi Calm Calm - N/A   Clear
6:43 AM 59.0 °F 57.0 °F 93% 29.96 in 2.5 mi Calm Calm - N/A   Partly Cloudy
6:53 AM 57.0 °F 55.9 °F 96% 29.93 in 1.8 mi Calm Calm - N/A   Mostly Cloudy
6:55 AM 57.9 °F 55.9 °F 93% 29.96 in 1.5 mi Calm Calm - N/A   Scattered Clouds
7:01 AM 59.0 °F 55.9 °F 90% 29.96 in 2.0 mi Calm Calm - N/A   Scattered Clouds
7:32 AM 57.9 °F 55.9 °F 93% 29.97 in 1.2 mi Calm Calm - N/A   Scattered Clouds
7:40 AM 57.9 °F 55.9 °F 93% 29.97 in 1.0 mi Calm Calm - N/A   Mist
7:43 AM 57.9 °F 55.9 °F 93% 29.97 in 1.8 mi Calm Calm - N/A   Partly Cloudy
7:53 AM 57.9 °F 55.0 °F 90% 29.94 in 1.5 mi Calm Calm - N/A   Clear
8:00 AM 57.9 °F 55.9 °F 93% 29.97 in 2.0 mi Calm Calm - N/A   Clear
8:10 AM 57.9 °F 55.9 °F 93% 29.98 in 4.0 mi Calm Calm - N/A   Clear
8:53 AM 60.1 °F 57.9 °F 93% 29.95 in 10.0 mi Calm Calm - N/A   Clear
9:53 AM 64.0 °F 60.1 °F 87% 29.96 in 10.0 mi Calm Calm - N/A   Clear
10:53 AM 69.1 °F 59.0 °F 70% 29.95 in 10.0 mi Variable 3.5 mph - N/A   Clear
11:53 AM 73.0 °F 57.9 °F 59% 29.95 in 10.0 mi Calm Calm - N/A   Clear
12:53 PM 75.9 °F 57.0 °F 52% 29.94 in 10.0 mi Variable 4.6 mph - N/A   Clear
1:53 PM 77.0 °F 53.1 °F 43% 29.92 in 10.0 mi Calm Calm - N/A   Clear
2:53 PM 79.0 °F 55.0 °F 44% 29.90 in 10.0 mi Calm Calm - N/A   Clear
3:53 PM 79.0 °F 55.9 °F 45% 29.89 in 10.0 mi Calm Calm - N/A   Clear
4:53 PM 79.0 °F 55.9 °F 45% 29.88 in 10.0 mi Calm Calm - N/A   Clear
5:53 PM 78.1 °F 55.9 °F 46% 29.88 in 10.0 mi Calm Calm - N/A   Clear
6:53 PM 72.0 °F 55.0 °F 55% 29.89 in 10.0 mi Calm Calm - N/A   Clear
7:53 PM 72.0 °F 54.0 °F 53% 29.90 in 10.0 mi Calm Calm - N/A   Clear
8:53 PM 69.1 °F 55.0 °F 61% 29.91 in 10.0 mi Calm Calm - N/A   Partly Cloudy
9:53 PM 68.0 °F 63.0 °F 84% 29.94 in 10.0 mi Calm Calm - N/A   Clear
10:53 PM 66.0 °F 57.0 °F 73% 29.93 in 10.0 mi Calm Calm - N/A   Clear
11:53 PM 66.9 °F 55.0 °F 66% 29.93 in 10.0 mi WNW 4.6 mph - N/A   Clear